User: anonymous   Login
Location: Santa Barbara
(34.4500°N, 119.7700°W)
Time: 21:03:45
(UTC-08:00)
Language:

Cosmos 1892 Rocket - Orbit

View from above orbital plane
View from above orbital plane
View from above satellite
View from above satellite

Ground track
Ground track

The orbit data is extracted from the following two-line orbital elements,

1 18422U 87088B   17023.36297685  .00000073  00000-0  60903-5 0  9990
2 18422  82.5138 312.5744 0019197 191.8512 307.8608 14.82906894580350
Epoch (UTC): 23 January 2017 08:42:41
Eccentricity: 0.0019197
inclination: 82.5138°
perigee height: 607 km
apogee height: 633 km
right ascension of ascending node: 312.5744°
argument of perigee: 191.8512°
revolutions per day: 14.82906894
mean anomaly at epoch: 307.8608°
orbit number at epoch: 58035

The dashed part of the orbit path shows where the satellite is in the earth's shadow,  

DLR